Satellite: AO-27
Catalog number: 22825
Epoch time:      06018.48327282
Element set:    0313
Inclination:      098.2703 deg
RA of node:       007.7800 deg
Eccentricity:    0.0008247
Arg of perigee:   351.3622 deg
Mean anomaly:     008.7419 deg
Mean motion:   14.29159823 rev/day
Decay rate:        5.4e-07 rev/day^2
Epoch rev:           64197
Checksum:              300

Satellite: IO-26
Catalog number: 22826
Epoch time:      06019.52852146
Element set:     998
Inclination:      098.2640 deg
RA of node:       010.0200 deg
Eccentricity:    0.0008886
Arg of perigee:   346.6475 deg
Mean anomaly:     013.4472 deg
Mean motion:   14.29402499 rev/day
Decay rate:        4.0e-08 rev/day^2
Epoch rev:           64219
Checksum:              303

Satellite: PO-28
Catalog number: 22829
Epoch time:      06018.89439380
Element set:     280
Inclination:      098.2540 deg
RA of node:       010.6191 deg
Eccentricity:    0.0009349
Arg of perigee:   323.3416 deg
Mean anomaly:     036.7126 deg
Mean motion:   14.30089228 rev/day
Decay rate:        3.0e-07 rev/day^2
Epoch rev:           64230
Checksum:              286

Satellite: TO-31
Catalog number: 25396
Epoch time:      06018.18658694
Element set:    0441
Inclination:      098.5016 deg
RA of node:       083.6845 deg
Eccentricity:    0.0001763
Arg of perigee:   282.4212 deg
Mean anomaly:     077.6761 deg
Mean motion:   14.23694343 rev/day
Decay rate:       -4.1e-07 rev/day^2
Epoch rev:           39100
Checksum:              304

Satellite: GO-32
Catalog number: 25397
Epoch time:      06018.71241013
Element set:     927
Inclination:      098.4917 deg
RA of node:       081.2672 deg
Eccentricity:    0.0000819
Arg of perigee:   335.1987 deg
Mean anomaly:     024.9168 deg
Mean motion:   14.23096630 rev/day
Decay rate:       -6.3e-07 rev/day^2
Epoch rev:           39098
Checksum:              315

Satellite: UO-36
Catalog number: 25693
Epoch time:      06019.44146676
Element set:     934
Inclination:      064.5604 deg
RA of node:       339.5617 deg
Eccentricity:    0.0002141
Arg of perigee:   281.4649 deg
Mean anomaly:     078.6300 deg
Mean motion:   14.78571659 rev/day
Decay rate:        4.3e-07 rev/day^2
Epoch rev:           36379
Checksum:              328

Satellite: MO-46
Catalog number: 26548
Epoch time:      06018.87124739
Element set:     390
Inclination:      064.5583 deg
RA of node:       333.5482 deg
Eccentricity:    0.0052409
Arg of perigee:   268.1246 deg
Mean anomaly:     091.3871 deg
Mean motion:   14.82899891 rev/day
Decay rate:       1.38e-06 rev/day^2
Epoch rev:           28726
Checksum:              346

Satellite: NO-44
Catalog number: 26931
Epoch time:      06018.54679141
Element set:     213
Inclination:      067.0522 deg
RA of node:       033.1126 deg
Eccentricity:    0.0006799
Arg of perigee:   274.6388 deg
Mean anomaly:     085.3947 deg
Mean motion:   14.29422372 rev/day
Decay rate:       1.20e-06 rev/day^2
Epoch rev:           22454
Checksum:              296

Satellite: SO-50
Catalog number: 27607
Epoch time:      06018.88298777
Element set:    0923
Inclination:      064.5554 deg
RA of node:       206.2852 deg
Eccentricity:    0.0060981
Arg of perigee:   191.7966 deg
Mean anomaly:     168.1698 deg
Mean motion:   14.71086064 rev/day
Decay rate:        3.2e-07 rev/day^2
Epoch rev:           16546
Checksum:              343

Satellite: AO-51
Catalog number: 28375
Epoch time:      06018.18131828
Element set:     439
Inclination:      098.1888 deg
RA of node:       076.8921 deg
Eccentricity:    0.0084037
Arg of perigee:   302.1248 deg
Mean anomaly:     057.1792 deg
Mean motion:   14.40500901 rev/day
Decay rate:        3.5e-07 rev/day^2
Epoch rev:            8156
Checksum:              305

Satellite: XO-53
Catalog number: 28894
Epoch time:      06019.53816393
Element set:     273
Inclination:      098.1814 deg
RA of node:       280.0760 deg
Eccentricity:    0.0016693
Arg of perigee:   278.5328 deg
Mean anomaly:     081.3980 deg
Mean motion:   14.59430368 rev/day
Decay rate:        5.0e-07 rev/day^2
Epoch rev:            1229
Checksum:              321

/EX
SB KEPS @ AMSAT  $ORB06019.W
Orbital Elements  06019.WEATHER

HR AMSAT ORBITAL ELEMENTS FOR WEATHER SATELLITES
FROM WA5QGD FORT WORTH,TX January 19, 2006
Send SUBSCRIBE KEPS/UNSUBSCRIBE KEPS to majordomo@amsat.org only
BID: ORB06019.W
TO ALL RADIO AMATEURS BT

Satellite: NOAA-10
Catalog number: 16969
Epoch time:      06019.10638428
Element set:      61
Inclination:      098.7653 deg
RA of node:       030.3934 deg
Eccentricity:    0.0011875
Arg of perigee:   222.0036 deg
Mean anomaly:     138.0219 deg
Mean motion:   14.27282890 rev/day
Decay rate:       -5.2e-07 rev/day^2
Epoch rev:             589
Checksum:              292

Satellite: NOAA-11
Catalog number: 19531
Epoch time:      06019.13891458
Element set:     954
Inclination:      098.8356 deg
RA of node:       109.1498 deg
Eccentricity:    0.0012258
Arg of perigee:   056.2398 deg
Mean anomaly:     303.9937 deg
Mean motion:   14.14788659 rev/day
Decay rate:       2.13e-06 rev/day^2
Epoch rev:           89346
Checksum:              349

Satellite: NOAA-12
Catalog number: 21263
Epoch time:      06019.08946424
Element set:     443
Inclination:      098.7210 deg
RA of node:       013.0799 deg
Eccentricity:    0.0012965
Arg of perigee:   158.3061 deg
Mean anomaly:     201.8672 deg
Mean motion:   14.25481546 rev/day
Decay rate:       -1.5e-07 rev/day^2
Epoch rev:           76300
Checksum:              284

